[[{"header":{"parameterUnit":"m.s-1","parameterCategory":1,"la1":30.2992,"la2":30.254,"lo1":-89.0895,"lo2":-89.0443,"dy":0.0025,"dx":0.0025,"nx":19,"ny":19,"refTime":"2026-04-03T21:00:00:Z","depth":0,"parameterNumber":2,"parameterNumberName":"U-component_of_WINDS"},"data":[0,0,0,-2.2172,-2.2176,-2.2378,-2.2378,-2.2616,-2.2618,0,0,0,0,0,0,0,0,0,0,0,-2.2101,-2.2102,-2.2171,-2.2176,-2.2377,-2.2378,-2.2616,-2.2618,0,0,0,0,0,0,0,0,0,0,0,-2.2101,-2.2102,-2.2104,-2.2177,-2.2377,-2.2379,-2.2616,-2.247,0,0,0,0,0,0,0,0,0,0,-2.2278,-2.2203,-2.2102,-2.2104,-2.2178,-2.2377,-2.2379,-2.2464,-2.2479,-2.2517,0,-2.2549,0,-2.2587,-2.2633,-2.2634,0,0,0,-2.2184,-2.2189,-2.2253,-2.2104,-2.218,-2.2377,-2.2289,-2.2473,-2.249,-2.2538,-2.2552,-2.2561,-2.2591,-2.2635,-2.2636,-2.2829,-2.2829,0,0,-2.2173,-2.2131,-2.2241,-2.2264,-2.2233,-2.2282,-2.2295,-2.2484,-2.2496,-2.2553,-2.2567,-2.2595,-2.2636,-2.2638,-2.2828,-2.2829,0,0,0,-2.2136,-2.2123,-2.2183,-2.2254,-2.2292,-2.2288,-2.2303,-2.2488,-2.2511,-2.257,-2.2598,-2.2637,-2.264,-2.2828,-2.2828,-2.2814,0,0,0,-2.2129,-2.2102,-2.2178,-2.2155,-2.2288,-2.2393,-2.2302,-2.2498,-2.2521,-2.2597,-2.2637,-2.2642,-2.2827,-2.2828,-2.2813,-2.2813,0,0,0,-2.2092,-2.2097,-2.2123,-2.2152,-2.2237,-2.2391,-2.2425,-2.2504,-2.2537,-2.2634,-2.2643,-2.2827,-2.2828,-2.2812,-2.2812,-2.2851,0,0,0,-2.2039,-2.2107,-2.2122,-2.2209,-2.2235,-2.2381,-2.2424,-2.2535,-2.2616,-2.2638,-2.2827,-2.2828,-2.2812,-2.2812,-2.285,-2.2875,-2.2882,0,0,-2.2102,-2.2113,-2.2168,-2.2187,-2.2319,-2.2353,-2.2484,-2.2597,-2.2644,-2.2764,-2.2769,-2.2813,-2.2812,-2.2851,-2.2938,-2.2943,0,0,0,-2.2173,-2.2211,-2.2255,-2.2331,-2.242,-2.2496,-2.2595,-2.2637,-2.2741,-2.2698,-2.284,-2.284,-2.2865,-2.2878,-2.2883,-2.2906,-2.2833,-2.2833,-2.2833,-2.22,-2.2257,-2.2351,-2.2432,-2.2505,-2.2606,-2.267,-2.2744,-2.278,-2.2812,-2.2848,-2.2894,-2.2908,-2.2912,-2.2935,-2.2867,-2.2867,-2.2867,-2.2867,-2.2295,-2.2358,-2.2405,-2.2511,-2.2571,-2.2661,-2.2761,-2.2783,-2.2875,-2.2872,-2.2896,-2.2886,-2.2916,-2.2939,-2.2866,-2.2866,-2.2866,-2.2866,-2.2867,-2.2318,-2.2358,-2.2409,-2.2524,-2.2607,-2.2687,-2.2773,-2.2825,-2.2874,-2.2898,-2.294,-2.294,-2.2945,-2.2914,-2.2915,-2.2915,-2.2915,-2.2915,-2.2915,-2.2321,-2.2379,-2.2445,-2.2546,-2.2601,-2.268,-2.2783,-2.2838,-2.2913,-2.2943,-2.2944,-2.2975,-2.2909,-2.289,-2.2918,-2.2917,-2.2917,-2.2917,-2.2917,-2.2393,-2.2385,-2.2487,-2.2543,-2.2665,-2.2742,-2.2808,-2.2917,-2.297,-2.301,-2.3038,-2.2981,-2.2996,-2.2993,-2.2977,-2.3026,-2.3026,-2.3026,-2.3026,-2.241,-2.2424,-2.254,-2.2625,-2.2715,-2.2784,-2.2897,-2.2977,-2.3058,-2.3094,-2.3095,-2.308,-2.3074,-2.3093,-2.3087,-2.3074,-2.3146,-2.3146,-2.3146,-2.2457,-2.2482,-2.2568,-2.2648,-2.2747,-2.2831,-2.2938,-2.3033,-2.3124,-2.3152,-2.3123,-2.3118,-2.3094,-2.3084,-2.3109,-2.31,-2.3076,0,0]},{"header":{"parameterUnit":"m.s-1","parameterCategory":1,"la1":30.2992,"la2":30.254,"lo1":-89.0895,"lo2":-89.0443,"dy":0.0025,"dx":0.0025,"nx":19,"ny":19,"refTime":"2026-04-03T21:00:00:Z","depth":0,"parameterNumber":3,"parameterNumberName":"V-component_of_WINDS"},"data":[0,0,0,2.43,2.43,2.4248,2.4248,2.4193,2.4193,0,0,0,0,0,0,0,0,0,0,0,2.4325,2.4325,2.43,2.4299,2.4248,2.4248,2.4193,2.4193,0,0,0,0,0,0,0,0,0,0,0,2.4325,2.4325,2.4325,2.4299,2.4248,2.4248,2.4193,2.4227,0,0,0,0,0,0,0,0,0,0,2.4275,2.4307,2.4325,2.4325,2.4299,2.4249,2.4248,2.4229,2.4225,2.4222,0,2.4223,0,2.4208,2.419,2.419,0,0,0,2.4292,2.431,2.4288,2.4325,2.4299,2.4249,2.4269,2.4227,2.4223,2.4217,2.4222,2.422,2.4207,2.419,2.4189,2.4202,2.4202,0,0,2.4295,2.4319,2.4291,2.4286,2.4298,2.4271,2.4268,2.4224,2.423,2.4222,2.4218,2.4206,2.4189,2.4189,2.4202,2.4202,0,0,0,2.4308,2.4322,2.4301,2.4289,2.4279,2.427,2.4266,2.4232,2.4224,2.4218,2.4205,2.4189,2.4189,2.4201,2.4202,2.4248,0,0,0,2.4309,2.4329,2.4303,2.4317,2.428,2.4256,2.4275,2.4227,2.4221,2.4205,2.4189,2.4188,2.4201,2.4201,2.4246,2.4265,0,0,0,2.4325,2.4331,2.4327,2.4319,2.4298,2.4256,2.4244,2.4225,2.4214,2.419,2.4188,2.42,2.4201,2.4244,2.4261,2.4276,0,0,0,2.4347,2.4366,2.4328,2.4345,2.4299,2.4286,2.4244,2.4233,2.4218,2.4189,2.4201,2.4202,2.4243,2.4259,2.4274,2.4293,2.4304,0,0,2.4385,2.4372,2.438,2.4344,2.4345,2.4292,2.4298,2.4259,2.4232,2.4213,2.4213,2.4246,2.4261,2.4276,2.4354,2.4363,0,0,0,2.44,2.4406,2.4401,2.439,2.4363,2.4341,2.43,2.4285,2.4269,2.4229,2.4255,2.4263,2.427,2.4278,2.4285,2.429,2.4207,2.4206,2.4206,2.4487,2.4456,2.4466,2.4429,2.4419,2.4377,2.4365,2.4338,2.4306,2.4314,2.4307,2.4359,2.4369,2.4374,2.438,2.4315,2.4315,2.4315,2.4315,2.4539,2.4543,2.4504,2.45,2.4466,2.4462,2.4423,2.4401,2.439,2.436,2.4365,2.4335,2.4385,2.4388,2.4318,2.4318,2.4317,2.4317,2.4317,2.4592,2.4589,2.4574,2.4556,2.4545,2.4506,2.4499,2.4467,2.4437,2.4442,2.4432,2.4431,2.4426,2.444,2.444,2.444,2.444,2.444,2.444,2.4653,2.4635,2.4635,2.4611,2.46,2.4583,2.4543,2.453,2.4509,2.4486,2.4485,2.4453,2.4396,2.4383,2.4443,2.4442,2.4442,2.4442,2.4442,2.4717,2.4699,2.4698,2.4689,2.4658,2.465,2.4611,2.4589,2.4575,2.4572,2.454,2.4503,2.4486,2.448,2.4468,2.4547,2.4547,2.4547,2.4547,2.4762,2.4752,2.4746,2.4732,2.4715,2.4681,2.468,2.4649,2.4614,2.4603,2.4587,2.4569,2.4564,2.455,2.4542,2.4531,2.4623,2.4624,2.4624,2.48,2.4787,2.4794,2.4762,2.4736,2.4714,2.4713,2.4698,2.4653,2.4626,2.4593,2.459,2.4561,2.4553,2.4524,2.4513,2.4492,0,0]}]]